Overview Statistics Trail Chart Weather Telemetry Raw packets
 

This is the latest recevied weather packets stored in our database for station/object 4S6DRJ-13. If no packets are shown the sender has not sent any weather packets the latest 10 day(s).

<< 93 94 95 96 97 98 99 >>
Time Temp. Humidity Pressure Rain* Wind** Luminosity Snow
1788314691 28.33° C 83% 1009.7 hPa 0 mm 1.79 m/s, 339° 287 W/m² -
1788314631 28.33° C 83% 1010 hPa 0 mm 2.68 m/s, 209° 273 W/m² -
1788314569 28.33° C 84% 1009.9 hPa 0 mm 1.79 m/s, 191° 274 W/m² -
1788314508 28.33° C 84% 1009.7 hPa 0 mm 1.34 m/s, 267° 264 W/m² -
1788314447 28.33° C 84% 1009.8 hPa 0 mm 0.45 m/s, 194° 255 W/m² -
1788314386 27.78° C 84% 1009.9 hPa 0 mm 1.79 m/s, 243° 244 W/m² -
1788314325 27.78° C 85% 1009.8 hPa 0 mm 1.34 m/s, 300° 237 W/m² -
1788314264 27.78° C 85% 1009.8 hPa 0 mm 2.24 m/s, 16° 226 W/m² -
1788314203 27.78° C 86% 1009.6 hPa 0 mm 0.45 m/s, 75° 192 W/m² -
1788314142 27.78° C 86% 1009.8 hPa 0 mm 1.79 m/s, 252° 190 W/m² -
1788314081 27.78° C 86% 1009.8 hPa 0 mm 0.89 m/s, 315° 187 W/m² -
1788314020 27.78° C 87% 1009.7 hPa 0 mm 1.79 m/s, 230° 185 W/m² -
1788313959 27.78° C 87% 1009.6 hPa 0 mm 0.89 m/s, 331° 94 W/m² -
1788313909 27.78° C 87% 1009.8 hPa 0 mm 0.45 m/s, 146° 95 W/m² -
1788313837 27.78° C 87% 1009.7 hPa 0 mm 1.34 m/s, 195° 105 W/m² -
1788313777 27.78° C 88% 1009.9 hPa 0 mm 0 m/s 113 W/m² -
1788313715 27.78° C 88% 1009.7 hPa 0 mm 1.34 m/s, 251° 116 W/m² -
1788313654 27.78° C 88% 1009.8 hPa 0 mm 0 m/s 130 W/m² -
1788313594 27.78° C 89% 1009.5 hPa 0 mm 1.34 m/s, 245° 160 W/m² -
1788313532 27.78° C 89% 1009.5 hPa 0 mm 0 m/s 206 W/m² -
1788313471 27.22° C 90% 1009.7 hPa 0 mm 0.45 m/s, 227° 231 W/m² -
1788313410 27.22° C 89% 1009.6 hPa 0 mm 0.45 m/s, 163° 258 W/m² -
1788313349 27.22° C 89% 1009.6 hPa 0 mm 1.34 m/s, 206° 264 W/m² -
1788313288 27.22° C 90% 1009.5 hPa 0 mm 0 m/s 192 W/m² -
1788313227 27.22° C 90% 1009.6 hPa 0 mm 0 m/s 179 W/m² -

* Rain latest hour (hover to see other rain measurements)
** Current wind speed in m/s (hover to see current wind gust speed)